{"data":{"norad_id":67144,"intl_designator":"2025-301M","name":"KUIPER-00196","alt_names":[],"object_type":"PAYLOAD","status":"ACTIVE","operator":null,"country":"US","launch_date":"2025-12-16","launch_site_code":"AFETR","launch_vehicle":null,"mission":null,"orbit_class":"UNKNOWN","rcs_meters":null,"size_class":null,"mass_kg":null,"dimensions":null,"purposes":[],"wikipedia_slug":null,"has_3d_model":false,"image_url":null,"decayed_at":null,"tle_current":{"epoch":"2026-09-20T16:32:24.338112Z","epoch_age_seconds":89862,"freshness":"FRESH","line1":"1 67144U 25301M   26263.68917058  .00001748  00000+0  25827-3 0  9992","line2":"2 67144  51.8985 248.3152 0000655  68.5004 291.6029 14.79936046 43098","mean_motion":14.79936046,"eccentricity":6.55e-5,"inclination_deg":51.8985,"raan_deg":248.3152,"arg_perigee_deg":68.5004,"mean_anomaly_deg":291.6029,"bstar":0.00025827,"rev_number":4309,"period_min":97.301501905576,"perigee_km":629.06701179689,"apogee_km":629.98501565168,"semimajor_km":7007.6630137243,"source":"CELESTRAK","updated_at":"2026-09-21T09:00:16.457007Z"}}}